TimeMDT,TemperatureF,Dew PointF,Humidity,Sea Level PressureIn,VisibilityMPH,Wind Direction,Wind SpeedMPH,Gust SpeedMPH,PrecipitationIn,Events,Conditions,WindDirDegrees,DateUTC
12:53 AM,34.0,28.0,79,30.08,10.0,Calm,Calm,-,N/A,,Clear,0,2013-10-12 06:53:00
1:53 AM,35.1,28.0,76,30.06,10.0,SW,3.5,-,N/A,,Clear,230,2013-10-12 07:53:00
2:53 AM,30.0,26.1,85,30.08,10.0,West,5.8,-,N/A,,Clear,280,2013-10-12 08:53:00
3:53 AM,32.0,26.1,79,30.07,10.0,WNW,4.6,-,N/A,,Clear,300,2013-10-12 09:53:00
4:53 AM,30.9,27.0,85,30.09,10.0,NW,6.9,-,N/A,,Clear,310,2013-10-12 10:53:00
5:53 AM,30.9,25.0,79,30.10,10.0,Calm,Calm,-,N/A,,Clear,0,2013-10-12 11:53:00
6:53 AM,30.0,26.1,85,30.11,10.0,Calm,Calm,-,N/A,,Clear,0,2013-10-12 12:53:00
7:53 AM,30.9,26.1,82,30.13,10.0,Calm,Calm,-,N/A,,Clear,0,2013-10-12 13:53:00
8:53 AM,32.0,27.0,82,30.13,9.0,Calm,Calm,-,N/A,,Clear,0,2013-10-12 14:53:00
9:53 AM,37.0,28.9,73,30.13,10.0,Calm,Calm,-,N/A,,Clear,0,2013-10-12 15:53:00
10:53 AM,41.0,28.9,62,30.11,10.0,Calm,Calm,-,N/A,,Clear,0,2013-10-12 16:53:00
11:53 AM,42.1,30.0,62,30.11,10.0,Calm,Calm,-,N/A,,Partly Cloudy,0,2013-10-12 17:53:00
12:53 PM,41.0,30.9,67,30.10,10.0,Calm,Calm,-,N/A,,Overcast,0,2013-10-12 18:53:00
1:53 PM,44.1,30.9,60,30.06,10.0,Calm,Calm,-,N/A,,Clear,0,2013-10-12 19:53:00
2:53 PM,46.0,30.0,54,30.06,10.0,Calm,Calm,-,N/A,,Clear,0,2013-10-12 20:53:00
3:53 PM,46.9,30.0,52,30.04,10.0,Calm,Calm,-,N/A,,Clear,0,2013-10-12 21:53:00
4:53 PM,48.0,30.0,50,30.03,10.0,Calm,Calm,-,N/A,,Scattered Clouds,0,2013-10-12 22:53:00
5:53 PM,44.1,30.9,60,30.06,10.0,Calm,Calm,-,N/A,,Clear,0,2013-10-12 23:53:00
6:53 PM,41.0,32.0,70,30.08,10.0,WSW,6.9,-,N/A,,Clear,250,2013-10-13 00:53:00
7:53 PM,39.0,32.0,76,30.10,10.0,West,6.9,-,N/A,,Clear,260,2013-10-13 01:53:00
8:53 PM,39.0,32.0,76,30.11,10.0,SW,3.5,-,N/A,,Partly Cloudy,220,2013-10-13 02:53:00
9:53 PM,37.9,32.0,79,30.10,10.0,Calm,Calm,-,N/A,,Partly Cloudy,0,2013-10-13 03:53:00
10:53 PM,37.9,32.0,79,30.08,10.0,WSW,4.6,-,N/A,,Mostly Cloudy,250,2013-10-13 04:53:00
11:53 PM,37.0,33.1,86,30.08,10.0,NNW,3.5,-,N/A,,Overcast,330,2013-10-13 05:53:00